OpenBCM V1.13 (Linux)

Packet Radio Mailbox

DB0FHN

[JN59NK Nuernberg]

 Login: GUEST





  
LU9DCE > KEP      18.07.19 20:03l 247 Lines 12109 Bytes #999 (0) @ WW
BID : 28712_LU9DCE
Read: DJ6UX DF7EAV GUEST
Subj: TLE 18 07
Path: DB0FHN<DB0BLO<DB0ERF<DB0RES<DB0OVN<DB0GOS<ON0AR<VE2PKT<N3HYM<LU9DCE
Sent: 190718/1800Z 28712@LU9DCE.TOR.BA.ARG.SOAM LinBPQ6.0.18

            __    _  _  ___  ____   ___  ____    ____  ____  ____
           (  )  / )( \/ _ \(    \ / __)(  __)  (  _ \(  _ \/ ___)
           / (_/\) \/ (\__  )) D (( (__  ) _)    ) _ ( ) _ (\___ \
           \____/\____/(___/(____/ \___)(____)  (____/(____/(____/
               ESTACION DE PACKET RADIO - BUENOS AIRES (GF05OM)
                   BOLETINES INFORMATIVOS PROGRAMADOS (BIP)
                  SLACKWARE LINUX - HELLOCODELINUX@GMAIL.COM

+----------------------------------------------------------------------------+
OSCAR 7
1  7530U 74089B   19198.84471368 -.00000049  00000-0 -26183-4 0  9991
2  7530 101.7455 166.2090 0011785 292.4213 180.8923 12.53638862 44170
OSCAR 11 (UoSAT 2)
1 14781U 84021B   19198.84640226 +.00000052 +00000-0 +12502-4 0  9997
2 14781 097.6092 222.1840 0007497 215.5259 144.5457 14.83095720882086
OSCAR 19 (LUSAT)
1 20442U 90005G   19198.64738777 -.00000006  00000-0  14156-4 0  9991
2 20442  98.6496 140.6009 0012888  66.2996 293.9539 14.32928926540523
EYESAT A
1 22825U 93061C   19198.81592268 -.00000022 +00000-0 +95080-5 0  9999
2 22825 098.9042 188.1191 0007292 275.3859 084.6490 14.30062439345848
ITAMSAT
1 22826U 93061D   19198.74085601 -.00000013  00000-0  12749-4 0  9990
2 22826  98.8981 188.0301 0007795 262.6260  97.4036 14.30396182346300
RADIO ROSTO
1 23439U 94085A   19198.87264216 -.00000014 +00000-0 +81645-3 0  9994
2 23439 064.8179 068.9366 0146172 107.5111 254.1845 11.27568436011186
JAS 2
1 24278U 96046B   19198.83233514 -.00000049 +00000-0 -15191-4 0  9991
2 24278 098.5411 348.2936 0350703 164.2927 196.9430 13.53092552131492
TECHSAT 1B
1 25397U 98043D   19199.41860369 -.00000021  00000-0  10156-4 0  9997
2 25397  98.6896 139.2044 0000934  12.3473 347.7729 14.23667772 92109
ISS (ZARYA)
1 25544U 98067A   19199.57039615  .00000466  00000-0  15748-4 0  9990
2 25544  51.6430 205.5656 0007010 153.3340 346.5981 15.50985081180127
PCSAT
1 26931U 01043C   19198.65491514 -.00000038 +00000-0 +17090-4 0  9995
2 26931 067.0518 288.9413 0007123 277.0603 082.9688 14.30547031929046
SAUDISAT 1C
1 27607U 02058C   19198.75756807 -.00000052 +00000-0 +13618-4 0  9991
2 27607 064.5559 320.7308 0080336 250.9361 108.3028 14.75558864891190
CUTE-1
1 27844U 03031E   19198.49816442  .00000024  00000-0  30445-4 0  9994
2 27844  98.6833 206.2804 0008887 313.2892  46.7543 14.22185501832387
CUBESAT XI 4
1 27848U 03031J   19198.49850824  .00000020  00000-0  28876-4 0  9991
2 27848  98.6910 206.7871 0008998 325.8266  34.2331 14.21779889832231
MOZHAYETS 4
1 27939U 03042A   19199.38140881  .00000004  00000-0  93127-5 0  9992
2 27939  98.0447 334.6241 0012322 338.6509  21.4192 14.66790676844895
CUBESAT XI 5
1 28895U 05043F   19199.38266364  .00000061  00000-0  20660-4 0  9996
2 28895  97.9632 341.1023 0015443 256.6516 103.2965 14.63675495731829
CUTE-1.7+APD II
1 32785U 08021C   19198.79682532 +.00000120 +00000-0 +18541-4 0  9992
2 32785 097.5496 197.1390 0013534 159.8133 200.3622 14.88321216607940
DELFI C3
1 32789U 08021G   19198.70123547  .00000716  00000-0  51812-4 0  9992
2 32789  97.4622 247.4888 0012981  33.5062 326.6984 15.07001058611331
SEEDS
1 32791U 08021J   19198.76631415 +.00000284 +00000-0 +34133-4 0  9996
2 32791 097.5276 203.1131 0014441 136.1210 224.1158 14.90835793608364
YUBELEINY
1 32953U 08025A   19199.26268930  .00000021  00000-0  75656-4 0  9998
2 32953  82.5023 126.3785 0020444  64.4963 295.8237 12.43090702505983
PRISM (HITOMI)
1 33493U 09002B   19199.01230527  .00000522  00000-0  51207-4 0  9990
2 33493  98.1219 121.0798 0016876  85.8806 274.4343 14.96680506569535
KKS-1 (KISEKI)
1 33499U 09002H   19199.17508698  .00000073  00000-0  18802-4 0  9995
2 33499  98.3486  38.8201 0010413 109.9039 250.3292 14.75448717563577
SWISSCUBE
1 35932U 09051B   19198.72906244 +.00000086 +00000-0 +30504-4 0  9999
2 35932 098.5904 005.5551 0008856 079.2605 280.9588 14.56292859520969
BEESAT
1 35933U 09051C   19198.45544994  .00000068  00000-0  26263-4 0  9997
2 35933  98.5928   7.0447 0007102  91.2761 268.9249 14.56380954521074
ITUPSAT 1
1 35935U 09051E   19198.73594836 +.00000051 +00000-0 +22819-4 0  9995
2 35935 098.6040 007.5697 0009389 088.0493 272.1779 14.55539941520838
XIWANG-1 (HOPE-1)
1 36122U 09072B   19198.69350346 -.00000029 +00000-0 +34653-4 0  9993
2 36122 100.0722 199.7088 0007011 279.6878 080.3430 13.16350325460698
TISAT 1
1 36799U 10035E   19198.87298774 +.00000047 +00000-0 +10876-4 0  9990
2 36799 098.1591 351.9981 0012050 357.1713 002.9434 14.91118641488918
JUGNU
1 37839U 11058B   19199.20201031  .00000282  00000-0  83589-5 0  9993
2 37839  19.9603 155.8208 0018704 292.5104 189.5690 14.12654117401434
SRMSAT
1 37841U 11058D   19199.21369566  .00000269  00000-0  26681-5 0  9990
2 37841  19.9706 213.1398 0011845 159.9609 275.9676 14.10635080400860
M-CUBED/EXP-1 PRIME
1 37855U 11061F   19199.04215891  .00000875  00000-0  51696-4 0  9997
2 37855 101.7118 109.7044 0173541 349.8887   9.8850 15.05481697421195
HORYU 2
1 38340U 12025D   19198.79907097  .00000112  00000-0  24404-4 0  9996
2 38340  98.3270 238.2604 0012230  37.5350 322.6710 14.75728778385457
STRAND 1
1 39090U 13009E   19198.79056838  .00000021  00000-0  22436-4 0  9992
2 39090  98.4861  44.2573 0008712 195.2068 164.8857 14.35090295334561
SOMP
1 39134U 13015E   19198.63490451 +.00000506 +00000-0 +32498-4 0  9991
2 39134 064.8636 286.6648 0032279 298.8550 060.9339 15.20200897344617
BEESAT 3
1 39135U 13015F   19199.39923388  .00000421  00000-0  30729-4 0  9997
2 39135  64.8701 302.9040 0025251 315.9226  43.9887 15.17506654344752
BEESAT 2
1 39136U 13015G   19199.38150709  .00000336  00000-0  26936-4 0  9996
2 39136  64.8712 306.8718 0020683 299.1724  60.7332 15.16935033344679
CUBEBUG 1
1 39153U 13018D   19199.22923719  .00000082  00000-0  17586-4 0  9999
2 39153  97.9798 297.1897 0018422 102.2939 258.0336 14.80575135336196
ZACUBE
1 39417U 13066B   19199.02506481  .00000122  00000-0  21827-4 0  9994
2 39417  97.5616 210.8779 0057520 298.6248  60.9187 14.81125164305385
TRITON 1
1 39427U 13066M   19198.49535763  .00000151  00000-0  31760-4 0  9999
2 39427  97.6777 174.0953 0115358  73.4547 287.9294 14.67851312302567
GOMX 1
1 39430U 13066Q   19199.38189590  .00000112  00000-0  29149-4 0  9990
2 39430  97.7494 153.9826 0151402 160.1583 200.5600 14.59261244300938
HUMSAT D
1 39433U 13066T   19199.11879269  .00000091  00000-0  14230-4 0  9994
2 39433  97.5515 245.4198 0030261 199.6115 160.3943 14.92207937307463
CUBEBUG 2
1 39440U 13066AA  19198.49764990  .00000118  00000-0  23506-4 0  9992
2 39440  97.6024 195.2340 0080074 352.5778   7.4240 14.75863150304228
FUNCUBE 1
1 39444U 13066AE  19199.00943087  .00000159  00000-0  26036-4 0  9996
2 39444  97.5596 212.8374 0056545 292.2821  67.2403 14.81945707304279
UWE-3
1 39446U 13066AG  19198.45240422  .00000109  00000-0  21357-4 0  9995
2 39446  97.5809 202.2461 0069171 327.3840  32.3109 14.78397555303518
SPROUT
1 39770U 14029E   19199.36702707  .00000288  00000-0  37982-4 0  9994
2 39770  97.8858 302.4685 0008761 357.7229   2.3941 14.87362531279241
UNISAT 6
1 40012U 14033C   19198.86611262  .00000101  00000-0  22450-4 0  9997
2 40012  97.7541  64.2156 0058575   5.2759 354.9055 14.73985926272987
DUCHIFAT 1
1 40021U 14033M   19198.74417255  .00000321  00000-0  38660-4 0  9994
2 40021  97.9235 123.4343 0012015 320.2762  39.7574 14.90643230275871
QB50P1
1 40025U 14033R   19198.73180499  .00000184  00000-0  25552-4 0  9997
2 40025  97.9052 118.3694 0011753 330.4294  29.6257 14.88953738275640
CHUBUSAT 1
1 40300U 14070C   19199.43555877  .00000294  00000-0  15828-4 0  9995
2 40300  97.3244 272.8623 0019568 314.9205 104.7772 15.22107585260542
NUDT-PHONESAT
1 40900U 15049B   19199.28442449  .00001400  00000-0  62682-4 0  9991
2 40900  97.4361 208.3277 0014580  81.6340  42.1079 15.22852283212167
ZDPS 2A
1 40901U 15049C   19199.28569267  .00000682  00000-0  37034-4 0  9994
2 40901  97.4592 204.6793 0015086  98.7158  28.1854 15.17751980211726
ZDPS 2B
1 40902U 15049D   19199.30903363  .00000615  00000-0  33886-4 0  9994
2 40902  97.4538 202.1859 0015084  96.5332   0.4016 15.17575186211704
XW-2A
1 40903U 15049E   19199.36721157  .00001362  00000-0  33976-4 0  9990
2 40903  97.3358 242.2961 0014865  43.0712  19.6169 15.41919106214826
KAITUO 1A
1 40904U 15049F   19199.31651778  .00000260  00000-0  17260-4 0  9991
2 40904  97.4667 200.8163 0016118 103.5895 352.6855 15.15377264211487
OBJECT G
1 40905U 15049G   19199.29098175  .00000083  00000-0  80865-5 0  9990
2 40905  97.4706 198.3158 0017143  98.7851  26.4488 15.14301880211357
XW-2C
1 40906U 15049H   19199.45634875  .00000245  00000-0  16310-4 0  9995
2 40906  97.4672 201.0400 0016352  95.4238  70.9298 15.15691525211505
XW-2D
1 40907U 15049J   19199.35351038  .00000352  00000-0  21784-4 0  9992
2 40907  97.4646 200.6176 0015785  93.0798  14.6031 15.15880861211509
LILACSAT 2
1 40908U 15049K   19199.27975969  .00000458  00000-0  28888-4 0  9998
2 40908  97.4783 199.3635 0017408  99.4948  28.7430 15.13813842211284
XW-2F
1 40910U 15049M   19199.29122793  .00000649  00000-0  35805-4 0  9991
2 40910  97.4618 202.5835 0016454  86.6966  41.4706 15.17323308211501
XW-2B
1 40911U 15049N   19199.39288608  .00000453  00000-0  27139-4 0  9995
2 40911  97.4674 201.3100 0015670  93.9615  42.9064 15.15812189211407
KAITUO 1B
1 40912U 15049P   19199.27645850  .00000867  00000-0  43793-4 0  9992
2 40912  97.4487 206.2448 0016638  70.6609  53.2079 15.19639713211808
TIANWANG 1C (TW-1C)
1 40926U 15051B   19199.10010054  .00007456  00000-0  10787-3 0  9991
2 40926  97.1338 245.2417 0006080 258.9750 158.1831 15.56179010214738
